owner,sensor,date,latitude,longitude,vertical_datum,sea_water_temperature,qcFlag 
TABS,ioos:station:TABS:P:1,2000-01-01T00:00:00Z,29.1662,-92.7365,-2.0,17.78,11111222 
TABS,ioos:station:TABS:P:1,2000-01-01T00:30:00Z,29.1662,-92.7365,-2.0,17.71,11111222 
TABS,ioos:station:TABS:P:1,2000-01-05T22:00:00Z,29.1662,-92.7365,-2.0,17.06,11111222 
TABS,ioos:station:TABS:P:1,2000-01-05T22:30:00Z,29.1662,-92.7365,-2.0,17.06,11111222 
TABS,ioos:station:TABS:P:1,2000-01-05T23:00:00Z,29.1662,-92.7365,-2.0,17.03,11111222 
TABS,ioos:station:TABS:P:1,2000-01-05T23:30:00Z,29.1662,-92.7365,-2.0,17.0,11111222 
TABS,ioos:station:TABS:P:1,2000-01-06T00:00:00Z,29.1662,-92.7365,-2.0,16.97,11111222 
TABS,ioos:station:TABS:P:1,2000-01-06T00:30:00Z,29.1662,-92.7365,-2.0,16.96,11111222 
TABS,ioos:station:TABS:P:1,2000-01-06T01:00:00Z,29.1662,-92.7365,-2.0,16.95,11111222 
TABS,ioos:station:TABS:P:1,2000-01-06T01:30:00Z,29.1662,-92.7365,-2.0,16.93,11111222 
TABS,ioos:station:TABS:P:1,2000-01-06T02:00:00Z,29.1662,-92.7365,-2.0,16.91,11111222 
TABS,ioos:station:TABS:P:1,2000-01-06T02:30:00Z,29.1662,-92.7365,-2.0,16.86,11111222 
TABS,ioos:station:TABS:P:1,2000-01-06T03:00:00Z,29.1662,-92.7365,-2.0,16.84,11111222 
TABS,ioos:station:TABS:P:1,2000-01-06T03:30:00Z,29.1662,-92.7365,-2.0,16.83,11111222 
TABS,ioos:station:TABS:P:1,2000-01-06T04:00:00Z,29.1662,-92.7365,-2.0,16.9,11111222 
TABS,ioos:station:TABS:P:1,2000-01-06T04:30:00Z,29.1662,-92.7365,-2.0,16.91,11111222 
TABS,ioos:station:TABS:P:1,2000-01-06T05:00:00Z,29.1662,-92.7365,-2.0,16.91,11111222 
TABS,ioos:station:TABS:P:1,2000-01-06T05:30:00Z,29.1662,-92.7365,-2.0,16.91,11111222 
TABS,ioos:station:TABS:P:1,2000-01-06T06:00:00Z,29.1662,-92.7365,-2.0,16.89,11111222 
TABS,ioos:station:TABS:P:1,2000-01-06T06:30:00Z,29.1662,-92.7365,-2.0,16.88,11111222 
TABS,ioos:station:TABS:P:1,2000-01-06T07:00:00Z,29.1662,-92.7365,-2.0,16.88,11111222 
TABS,ioos:station:TABS:P:1,2000-01-06T07:30:00Z,29.1662,-92.7365,-2.0,16.87,11111222 
TABS,ioos:station:TABS:P:1,2000-01-06T08:00:00Z,29.1662,-92.7365,-2.0,16.88,11111222 
TABS,ioos:station:TABS:P:1,2000-01-06T08:30:00Z,29.1662,-92.7365,-2.0,16.9,11111222 
TABS,ioos:station:TABS:P:1,2000-01-06T09:00:00Z,29.1662,-92.7365,-2.0,16.86,11111222 
TABS,ioos:station:TABS:P:1,2000-01-06T09:30:00Z,29.1662,-92.7365,-2.0,16.72,11111222 
TABS,ioos:station:TABS:P:1,2000-01-06T10:00:00Z,29.1662,-92.7365,-2.0,16.71,11111222 
TABS,ioos:station:TABS:P:1,2000-01-06T10:30:00Z,29.1662,-92.7365,-2.0,16.7,11111222 
TABS,ioos:station:TABS:P:1,2000-01-06T11:00:00Z,29.1662,-92.7365,-2.0,16.68,11111222 
TABS,ioos:station:TABS:P:1,2000-01-06T11:30:00Z,29.1662,-92.7365,-2.0,16.66,11111222 
TABS,ioos:station:TABS:P:1,2000-01-06T12:00:00Z,29.1662,-92.7365,-2.0,16.66,11111222 
TABS,ioos:station:TABS:P:1,2000-01-06T12:30:00Z,29.1662,-92.7365,-2.0,16.68,11111222 
TABS,ioos:station:TABS:P:1,2000-01-06T13:00:00Z,29.1662,-92.7365,-2.0,16.7,11111222 
TABS,ioos:station:TABS:P:1,2000-01-06T13:30:00Z,29.1662,-92.7365,-2.0,16.72,11111222 
TABS,ioos:station:TABS:P:1,2000-01-06T14:00:00Z,29.1662,-92.7365,-2.0,16.72,11111222 
TABS,ioos:station:TABS:P:1,2000-01-06T14:30:00Z,29.1662,-92.7365,-2.0,16.71,11111222 
TABS,ioos:station:TABS:P:1,2000-01-06T15:00:00Z,29.1662,-92.7365,-2.0,16.78,11111222 
TABS,ioos:station:TABS:P:1,2000-01-06T15:30:00Z,29.1662,-92.7365,-2.0,16.87,11111222 
TABS,ioos:station:TABS:P:1,2000-01-06T16:00:00Z,29.1662,-92.7365,-2.0,16.91,11111222 
TABS,ioos:station:TABS:P:1,2000-01-06T16:30:00Z,29.1662,-92.7365,-2.0,16.96,11111222 
TABS,ioos:station:TABS:P:1,2000-01-06T17:00:00Z,29.1662,-92.7365,-2.0,17.01,11111222 
TABS,ioos:station:TABS:P:1,2000-01-06T17:30:00Z,29.1662,-92.7365,-2.0,17.02,11111222 
TABS,ioos:station:TABS:P:1,2000-01-06T18:00:00Z,29.1662,-92.7365,-2.0,17.03,11111222 
TABS,ioos:station:TABS:P:1,2000-01-06T18:30:00Z,29.1662,-92.7365,-2.0,17.04,11111222 
TABS,ioos:station:TABS:P:1,2000-01-06T19:00:00Z,29.1662,-92.7365,-2.0,17.06,11111222 
TABS,ioos:station:TABS:P:1,2000-01-06T19:30:00Z,29.1662,-92.7365,-2.0,17.11,11111222 
TABS,ioos:station:TABS:P:1,2000-01-06T20:00:00Z,29.1662,-92.7365,-2.0,17.22,11111222 
TABS,ioos:station:TABS:P:1,2000-01-06T20:30:00Z,29.1662,-92.7365,-2.0,17.39,11111222 
TABS,ioos:station:TABS:P:1,2000-01-06T21:00:00Z,29.1662,-92.7365,-2.0,17.42,11111222 
TABS,ioos:station:TABS:P:1,2000-01-06T21:30:00Z,29.1662,-92.7365,-2.0,17.45,11111222 
TABS,ioos:station:TABS:P:1,2000-01-06T22:00:00Z,29.1662,-92.7365,-2.0,17.46,11111222 
TABS,ioos:station:TABS:P:1,2000-01-06T22:30:00Z,29.1662,-92.7365,-2.0,17.48,11111222 
TABS,ioos:station:TABS:P:1,2000-01-06T23:00:00Z,29.1662,-92.7365,-2.0,17.48,11111222 
TABS,ioos:station:TABS:P:1,2000-01-06T23:30:00Z,29.1662,-92.7365,-2.0,17.48,11111222 
TABS,ioos:station:TABS:P:1,2000-01-07T00:00:00Z,29.1662,-92.7365,-2.0,17.46,11111222 
TABS,ioos:station:TABS:P:1,2000-01-07T00:30:00Z,29.1662,-92.7365,-2.0,17.45,11111222 
TABS,ioos:station:TABS:P:1,2000-01-07T01:00:00Z,29.1662,-92.7365,-2.0,17.44,11111222 
TABS,ioos:station:TABS:P:1,2000-01-07T01:30:00Z,29.1662,-92.7365,-2.0,17.43,11111222 
TABS,ioos:station:TABS:P:1,2000-01-07T02:00:00Z,29.1662,-92.7365,-2.0,17.43,11111222 
TABS,ioos:station:TABS:P:1,2000-01-07T02:30:00Z,29.1662,-92.7365,-2.0,17.42,11111222 
TABS,ioos:station:TABS:P:1,2000-01-07T03:00:00Z,29.1662,-92.7365,-2.0,17.42,11111222 
TABS,ioos:station:TABS:P:1,2000-01-07T03:30:00Z,29.1662,-92.7365,-2.0,17.42,11111222 
TABS,ioos:station:TABS:P:1,2000-01-07T04:00:00Z,29.1662,-92.7365,-2.0,17.4,11111222 
TABS,ioos:station:TABS:P:1,2000-01-07T04:30:00Z,29.1662,-92.7365,-2.0,17.41,11111222 
TABS,ioos:station:TABS:P:1,2000-01-07T05:00:00Z,29.1662,-92.7365,-2.0,17.41,11111222 
TABS,ioos:station:TABS:P:1,2000-01-07T05:30:00Z,29.1662,-92.7365,-2.0,17.41,11111222 
TABS,ioos:station:TABS:P:1,2000-01-07T06:00:00Z,29.1662,-92.7365,-2.0,17.4,11111222 
TABS,ioos:station:TABS:P:1,2000-01-07T06:30:00Z,29.1662,-92.7365,-2.0,17.39,11111222 
TABS,ioos:station:TABS:P:1,2000-01-07T07:00:00Z,29.1662,-92.7365,-2.0,17.39,11111222 
TABS,ioos:station:TABS:P:1,2000-01-07T07:30:00Z,29.1662,-92.7365,-2.0,17.39,11111222 
TABS,ioos:station:TABS:P:1,2000-01-07T08:00:00Z,29.1662,-92.7365,-2.0,17.38,11111222 
TABS,ioos:station:TABS:P:1,2000-01-07T08:30:00Z,29.1662,-92.7365,-2.0,17.37,11111222 
TABS,ioos:station:TABS:P:1,2000-01-07T09:00:00Z,29.1662,-92.7365,-2.0,17.27,11111222 
TABS,ioos:station:TABS:P:1,2000-01-07T09:30:00Z,29.1662,-92.7365,-2.0,17.26,11111222 
TABS,ioos:station:TABS:P:1,2000-01-07T10:00:00Z,29.1662,-92.7365,-2.0,17.24,11111222 
TABS,ioos:station:TABS:P:1,2000-01-07T10:30:00Z,29.1662,-92.7365,-2.0,17.22,11111222 
TABS,ioos:station:TABS:P:1,2000-01-07T11:00:00Z,29.1662,-92.7365,-2.0,17.18,11111222 
TABS,ioos:station:TABS:P:1,2000-01-07T11:30:00Z,29.1662,-92.7365,-2.0,17.11,11111222 
TABS,ioos:station:TABS:P:1,2000-01-07T12:00:00Z,29.1662,-92.7365,-2.0,17.07,11111222 
TABS,ioos:station:TABS:P:1,2000-01-07T12:30:00Z,29.1662,-92.7365,-2.0,17.03,11111222 
TABS,ioos:station:TABS:P:1,2000-01-07T13:00:00Z,29.1662,-92.7365,-2.0,17.0,11111222 
TABS,ioos:station:TABS:P:1,2000-01-07T13:30:00Z,29.1662,-92.7365,-2.0,16.97,11111222 
TABS,ioos:station:TABS:P:1,2000-01-07T14:00:00Z,29.1662,-92.7365,-2.0,16.92,11111222 
TABS,ioos:station:TABS:P:1,2000-01-07T14:30:00Z,29.1662,-92.7365,-2.0,16.91,11111222 
TABS,ioos:station:TABS:P:1,2000-01-07T15:00:00Z,29.1662,-92.7365,-2.0,16.89,11111222 
TABS,ioos:station:TABS:P:1,2000-01-07T15:30:00Z,29.1662,-92.7365,-2.0,16.88,11111222 
TABS,ioos:station:TABS:P:1,2000-01-07T16:00:00Z,29.1662,-92.7365,-2.0,16.9,11111222 
TABS,ioos:station:TABS:P:1,2000-01-07T16:30:00Z,29.1662,-92.7365,-2.0,16.9,11111222 
TABS,ioos:station:TABS:P:1,2000-01-07T17:00:00Z,29.1662,-92.7365,-2.0,16.91,11111222 
TABS,ioos:station:TABS:P:1,2000-01-07T17:30:00Z,29.1662,-92.7365,-2.0,16.91,11111222 
TABS,ioos:station:TABS:P:1,2000-01-07T18:00:00Z,29.1662,-92.7365,-2.0,16.93,11111222 
TABS,ioos:station:TABS:P:1,2000-01-07T18:30:00Z,29.1662,-92.7365,-2.0,16.95,11111222 
TABS,ioos:station:TABS:P:1,2000-01-07T19:00:00Z,29.1662,-92.7365,-2.0,16.98,11111222 
TABS,ioos:station:TABS:P:1,2000-01-07T19:30:00Z,29.1662,-92.7365,-2.0,16.99,11111222 
TABS,ioos:station:TABS:P:1,2000-01-07T20:00:00Z,29.1662,-92.7365,-2.0,17.0,11111222 
TABS,ioos:station:TABS:P:1,2000-01-07T20:30:00Z,29.1662,-92.7365,-2.0,17.01,11111222 
TABS,ioos:station:TABS:P:1,2000-01-07T21:00:00Z,29.1662,-92.7365,-2.0,17.01,11111222 
TABS,ioos:station:TABS:P:1,2000-01-07T21:30:00Z,29.1662,-92.7365,-2.0,17.02,11111222 
TABS,ioos:station:TABS:P:1,2000-01-07T22:00:00Z,29.1662,-92.7365,-2.0,17.02,11111222 
TABS,ioos:station:TABS:P:1,2000-01-07T22:30:00Z,29.1662,-92.7365,-2.0,17.01,11111222 
TABS,ioos:station:TABS:P:1,2000-01-07T23:00:00Z,29.1662,-92.7365,-2.0,17.01,11111222 
TABS,ioos:station:TABS:P:1,2000-01-07T23:30:00Z,29.1662,-92.7365,-2.0,17.01,11111222 
TABS,ioos:station:TABS:P:1,2000-01-08T00:00:00Z,29.1662,-92.7365,-2.0,17.0,11111222 
TABS,ioos:station:TABS:P:1,2000-01-08T00:30:00Z,29.1662,-92.7365,-2.0,17.0,11111222 
TABS,ioos:station:TABS:P:1,2000-01-08T01:00:00Z,29.1662,-92.7365,-2.0,16.99,11111222 
TABS,ioos:station:TABS:P:1,2000-01-08T01:30:00Z,29.1662,-92.7365,-2.0,16.99,11111222 
TABS,ioos:station:TABS:P:1,2000-01-08T02:00:00Z,29.1662,-92.7365,-2.0,16.97,11111222 
TABS,ioos:station:TABS:P:1,2000-01-08T02:30:00Z,29.1662,-92.7365,-2.0,16.97,11111222 
TABS,ioos:station:TABS:P:1,2000-01-08T03:00:00Z,29.1662,-92.7365,-2.0,16.97,11111222 
TABS,ioos:station:TABS:P:1,2000-01-08T03:30:00Z,29.1662,-92.7365,-2.0,16.96,11111222 
TABS,ioos:station:TABS:P:1,2000-01-08T04:00:00Z,29.1662,-92.7365,-2.0,16.95,11111222 
TABS,ioos:station:TABS:P:1,2000-01-08T04:30:00Z,29.1662,-92.7365,-2.0,16.94,11111222 
TABS,ioos:station:TABS:P:1,2000-01-08T05:00:00Z,29.1662,-92.7365,-2.0,16.93,11111222 
TABS,ioos:station:TABS:P:1,2000-01-08T05:30:00Z,29.1662,-92.7365,-2.0,16.92,11111222 
TABS,ioos:station:TABS:P:1,2000-01-08T06:00:00Z,29.1662,-92.7365,-2.0,16.91,11111222 
TABS,ioos:station:TABS:P:1,2000-01-08T06:30:00Z,29.1662,-92.7365,-2.0,16.9,11111222 
TABS,ioos:station:TABS:P:1,2000-01-08T07:00:00Z,29.1662,-92.7365,-2.0,16.89,11111222 
TABS,ioos:station:TABS:P:1,2000-01-08T07:30:00Z,29.1662,-92.7365,-2.0,16.87,11111222 
TABS,ioos:station:TABS:P:1,2000-01-08T08:00:00Z,29.1662,-92.7365,-2.0,16.86,11111222 
TABS,ioos:station:TABS:P:1,2000-01-08T08:30:00Z,29.1662,-92.7365,-2.0,16.84,11111222 
TABS,ioos:station:TABS:P:1,2000-01-08T09:00:00Z,29.1662,-92.7365,-2.0,16.83,11111222 
TABS,ioos:station:TABS:P:1,2000-01-08T09:30:00Z,29.1662,-92.7365,-2.0,16.82,11111222 
TABS,ioos:station:TABS:P:1,2000-01-08T10:00:00Z,29.1662,-92.7365,-2.0,16.82,11111222 
TABS,ioos:station:TABS:P:1,2000-01-08T10:30:00Z,29.1662,-92.7365,-2.0,16.82,11111222 
TABS,ioos:station:TABS:P:1,2000-01-08T11:00:00Z,29.1662,-92.7365,-2.0,16.8,11111222 
TABS,ioos:station:TABS:P:1,2000-01-08T11:30:00Z,29.1662,-92.7365,-2.0,16.79,11111222 
TABS,ioos:station:TABS:P:1,2000-01-08T12:00:00Z,29.1662,-92.7365,-2.0,16.78,11111222 
TABS,ioos:station:TABS:P:1,2000-01-08T12:30:00Z,29.1662,-92.7365,-2.0,16.77,11111222 
TABS,ioos:station:TABS:P:1,2000-01-08T13:00:00Z,29.1662,-92.7365,-2.0,16.75,11111222 
TABS,ioos:station:TABS:P:1,2000-01-08T13:30:00Z,29.1662,-92.7365,-2.0,16.74,11111222 
TABS,ioos:station:TABS:P:1,2000-01-08T14:00:00Z,29.1662,-92.7365,-2.0,16.73,11111222 
TABS,ioos:station:TABS:P:1,2000-01-08T14:30:00Z,29.1662,-92.7365,-2.0,16.73,11111222 
TABS,ioos:station:TABS:P:1,2000-01-08T15:00:00Z,29.1662,-92.7365,-2.0,16.73,11111222 
TABS,ioos:station:TABS:P:1,2000-01-08T15:30:00Z,29.1662,-92.7365,-2.0,16.73,11111222 
TABS,ioos:station:TABS:P:1,2000-01-08T16:00:00Z,29.1662,-92.7365,-2.0,16.68,11111222 
TABS,ioos:station:TABS:P:1,2000-01-08T16:30:00Z,29.1662,-92.7365,-2.0,16.66,11111222 
TABS,ioos:station:TABS:P:1,2000-01-08T17:00:00Z,29.1662,-92.7365,-2.0,16.65,11111222 
TABS,ioos:station:TABS:P:1,2000-01-08T17:30:00Z,29.1662,-92.7365,-2.0,16.65,11111222 
TABS,ioos:station:TABS:P:1,2000-01-08T18:00:00Z,29.1662,-92.7365,-2.0,16.66,11111222 
TABS,ioos:station:TABS:P:1,2000-01-08T18:30:00Z,29.1662,-92.7365,-2.0,16.73,11111222 
TABS,ioos:station:TABS:P:1,2000-01-08T19:00:00Z,29.1662,-92.7365,-2.0,16.76,11111222 
TABS,ioos:station:TABS:P:1,2000-01-08T19:30:00Z,29.1662,-92.7365,-2.0,16.76,11111222 
TABS,ioos:station:TABS:P:1,2000-01-08T20:00:00Z,29.1662,-92.7365,-2.0,16.74,11111222 
TABS,ioos:station:TABS:P:1,2000-01-08T20:30:00Z,29.1662,-92.7365,-2.0,16.75,11111222 
TABS,ioos:station:TABS:P:1,2000-01-08T21:00:00Z,29.1662,-92.7365,-2.0,16.8,11111222 
TABS,ioos:station:TABS:P:1,2000-01-08T21:30:00Z,29.1662,-92.7365,-2.0,16.82,11111222 
TABS,ioos:station:TABS:P:1,2000-01-08T22:00:00Z,29.1662,-92.7365,-2.0,16.85,11111222 
TABS,ioos:station:TABS:P:1,2000-01-08T22:30:00Z,29.1662,-92.7365,-2.0,16.84,11111222 
TABS,ioos:station:TABS:P:1,2000-01-08T23:00:00Z,29.1662,-92.7365,-2.0,16.83,11111222 
TABS,ioos:station:TABS:P:1,2000-01-08T23:30:00Z,29.1662,-92.7365,-2.0,16.82,11111222 
TABS,ioos:station:TABS:P:1,2000-01-09T00:00:00Z,29.1662,-92.7365,-2.0,16.82,11111222 
TABS,ioos:station:TABS:P:1,2000-01-09T00:30:00Z,29.1662,-92.7365,-2.0,16.82,11111222 
TABS,ioos:station:TABS:P:1,2000-01-09T01:00:00Z,29.1662,-92.7365,-2.0,16.82,11111222 
TABS,ioos:station:TABS:P:1,2000-01-09T01:30:00Z,29.1662,-92.7365,-2.0,16.82,11111222 
TABS,ioos:station:TABS:P:1,2000-01-09T02:00:00Z,29.1662,-92.7365,-2.0,16.82,11111222 
TABS,ioos:station:TABS:P:1,2000-01-09T02:30:00Z,29.1662,-92.7365,-2.0,16.82,11111222 
TABS,ioos:station:TABS:P:1,2000-01-09T03:00:00Z,29.1662,-92.7365,-2.0,16.82,11111222 
TABS,ioos:station:TABS:P:1,2000-01-09T03:30:00Z,29.1662,-92.7365,-2.0,16.82,11111222 
TABS,ioos:station:TABS:P:1,2000-01-09T04:00:00Z,29.1662,-92.7365,-2.0,16.82,11111222 
TABS,ioos:station:TABS:P:1,2000-01-09T04:30:00Z,29.1662,-92.7365,-2.0,16.82,11111222 
TABS,ioos:station:TABS:P:1,2000-01-09T05:00:00Z,29.1662,-92.7365,-2.0,16.82,11111222 
TABS,ioos:station:TABS:P:1,2000-01-09T05:30:00Z,29.1662,-92.7365,-2.0,16.82,11111222 
TABS,ioos:station:TABS:P:1,2000-01-09T06:00:00Z,29.1662,-92.7365,-2.0,16.82,11111222 
TABS,ioos:station:TABS:P:1,2000-01-09T06:30:00Z,29.1662,-92.7365,-2.0,16.82,11111222 
TABS,ioos:station:TABS:P:1,2000-01-09T07:00:00Z,29.1662,-92.7365,-2.0,16.82,11111222 
TABS,ioos:station:TABS:P:1,2000-01-09T07:30:00Z,29.1662,-92.7365,-2.0,16.82,11111222 
TABS,ioos:station:TABS:P:1,2000-01-09T08:00:00Z,29.1662,-92.7365,-2.0,16.82,11111222 
TABS,ioos:station:TABS:P:1,2000-01-09T08:30:00Z,29.1662,-92.7365,-2.0,16.81,11111222 
TABS,ioos:station:TABS:P:1,2000-01-09T09:00:00Z,29.1662,-92.7365,-2.0,16.81,11111222 
TABS,ioos:station:TABS:P:1,2000-01-09T09:30:00Z,29.1662,-92.7365,-2.0,16.8,11111222 
TABS,ioos:station:TABS:P:1,2000-01-09T10:00:00Z,29.1662,-92.7365,-2.0,16.8,11111222 
TABS,ioos:station:TABS:P:1,2000-01-09T10:30:00Z,29.1662,-92.7365,-2.0,16.8,11111222 
TABS,ioos:station:TABS:P:1,2000-01-09T11:00:00Z,29.1662,-92.7365,-2.0,16.8,11111222 
TABS,ioos:station:TABS:P:1,2000-01-09T11:30:00Z,29.1662,-92.7365,-2.0,16.79,11111222 
TABS,ioos:station:TABS:P:1,2000-01-09T12:00:00Z,29.1662,-92.7365,-2.0,16.78,11111222 
TABS,ioos:station:TABS:P:1,2000-01-09T12:30:00Z,29.1662,-92.7365,-2.0,16.77,11111222 
TABS,ioos:station:TABS:P:1,2000-01-09T13:00:00Z,29.1662,-92.7365,-2.0,16.76,11111222 
TABS,ioos:station:TABS:P:1,2000-01-09T13:30:00Z,29.1662,-92.7365,-2.0,16.75,11111222 
TABS,ioos:station:TABS:P:1,2000-01-09T14:00:00Z,29.1662,-92.7365,-2.0,16.75,11111222 
TABS,ioos:station:TABS:P:1,2000-01-09T14:30:00Z,29.1662,-92.7365,-2.0,16.74,11111222 
TABS,ioos:station:TABS:P:1,2000-01-09T15:00:00Z,29.1662,-92.7365,-2.0,16.74,11111222 
TABS,ioos:station:TABS:P:1,2000-01-09T15:30:00Z,29.1662,-92.7365,-2.0,16.73,11111222 
TABS,ioos:station:TABS:P:1,2000-01-09T16:00:00Z,29.1662,-92.7365,-2.0,16.73,11111222 
TABS,ioos:station:TABS:P:1,2000-01-09T16:30:00Z,29.1662,-92.7365,-2.0,16.74,11111222 
TABS,ioos:station:TABS:P:1,2000-01-09T17:00:00Z,29.1662,-92.7365,-2.0,16.74,11111222 
TABS,ioos:station:TABS:P:1,2000-01-09T17:30:00Z,29.1662,-92.7365,-2.0,16.73,11111222 
TABS,ioos:station:TABS:P:1,2000-01-09T18:00:00Z,29.1662,-92.7365,-2.0,16.75,11111222 
TABS,ioos:station:TABS:P:1,2000-01-09T18:30:00Z,29.1662,-92.7365,-2.0,16.77,11111222 
TABS,ioos:station:TABS:P:1,2000-01-09T19:00:00Z,29.1662,-92.7365,-2.0,16.79,11111222 
TABS,ioos:station:TABS:P:1,2000-01-09T19:30:00Z,29.1662,-92.7365,-2.0,16.85,11111222 
TABS,ioos:station:TABS:P:1,2000-01-09T20:00:00Z,29.1662,-92.7365,-2.0,16.87,11111222 
TABS,ioos:station:TABS:P:1,2000-01-09T20:30:00Z,29.1662,-92.7365,-2.0,16.94,11111222 
TABS,ioos:station:TABS:P:1,2000-01-09T21:00:00Z,29.1662,-92.7365,-2.0,17.0,11111222 
TABS,ioos:station:TABS:P:1,2000-01-09T21:30:00Z,29.1662,-92.7365,-2.0,17.01,11111222 
TABS,ioos:station:TABS:P:1,2000-01-09T22:00:00Z,29.1662,-92.7365,-2.0,17.01,11111222 
TABS,ioos:station:TABS:P:1,2000-01-09T22:30:00Z,29.1662,-92.7365,-2.0,17.01,11111222 
TABS,ioos:station:TABS:P:1,2000-01-09T23:00:00Z,29.1662,-92.7365,-2.0,16.95,11111222 
TABS,ioos:station:TABS:P:1,2000-01-09T23:30:00Z,29.1662,-92.7365,-2.0,16.94,11111222 
TABS,ioos:station:TABS:P:1,2000-01-10T00:00:00Z,29.1662,-92.7365,-2.0,16.93,11111222 
TABS,ioos:station:TABS:P:1,2000-01-10T00:30:00Z,29.1662,-92.7365,-2.0,16.91,11111222 
TABS,ioos:station:TABS:P:1,2000-01-10T01:00:00Z,29.1662,-92.7365,-2.0,16.9,11111222 
TABS,ioos:station:TABS:P:1,2000-01-10T01:30:00Z,29.1662,-92.7365,-2.0,16.91,11111222 
TABS,ioos:station:TABS:P:1,2000-01-10T02:00:00Z,29.1662,-92.7365,-2.0,16.95,11111222 
TABS,ioos:station:TABS:P:1,2000-01-10T02:30:00Z,29.1662,-92.7365,-2.0,16.98,11111222 
TABS,ioos:station:TABS:P:1,2000-01-10T03:00:00Z,29.1662,-92.7365,-2.0,17.01,11111222 
TABS,ioos:station:TABS:P:1,2000-01-10T03:30:00Z,29.1662,-92.7365,-2.0,17.04,11111222 
TABS,ioos:station:TABS:P:1,2000-01-10T04:00:00Z,29.1662,-92.7365,-2.0,17.06,11111222 
TABS,ioos:station:TABS:P:1,2000-01-10T04:30:00Z,29.1662,-92.7365,-2.0,17.08,11111222 
TABS,ioos:station:TABS:P:1,2000-01-10T05:00:00Z,29.1662,-92.7365,-2.0,17.1,11111222 
TABS,ioos:station:TABS:P:1,2000-01-10T05:30:00Z,29.1662,-92.7365,-2.0,17.1,11111222 
TABS,ioos:station:TABS:P:1,2000-01-10T06:00:00Z,29.1662,-92.7365,-2.0,17.11,11111222 
TABS,ioos:station:TABS:P:1,2000-01-10T06:30:00Z,29.1662,-92.7365,-2.0,17.11,11111222 
TABS,ioos:station:TABS:P:1,2000-01-10T07:00:00Z,29.1662,-92.7365,-2.0,17.12,11111222 
TABS,ioos:station:TABS:P:1,2000-01-10T07:30:00Z,29.1662,-92.7365,-2.0,17.11,11111222 
TABS,ioos:station:TABS:P:1,2000-01-10T08:00:00Z,29.1662,-92.7365,-2.0,17.11,11111222 
TABS,ioos:station:TABS:P:1,2000-01-10T08:30:00Z,29.1662,-92.7365,-2.0,17.1,11111222 
TABS,ioos:station:TABS:P:1,2000-01-10T09:00:00Z,29.1662,-92.7365,-2.0,17.1,11111222 
TABS,ioos:station:TABS:P:1,2000-01-10T09:30:00Z,29.1662,-92.7365,-2.0,17.1,11111222 
TABS,ioos:station:TABS:P:1,2000-01-10T10:00:00Z,29.1662,-92.7365,-2.0,17.1,11111222 
TABS,ioos:station:TABS:P:1,2000-01-10T10:30:00Z,29.1662,-92.7365,-2.0,17.1,11111222 
TABS,ioos:station:TABS:P:1,2000-01-10T11:00:00Z,29.1662,-92.7365,-2.0,17.1,11111222 
TABS,ioos:station:TABS:P:1,2000-01-10T11:30:00Z,29.1662,-92.7365,-2.0,17.09,11111222 
TABS,ioos:station:TABS:P:1,2000-01-10T12:00:00Z,29.1662,-92.7365,-2.0,17.09,11111222 
TABS,ioos:station:TABS:P:1,2000-01-10T12:30:00Z,29.1662,-92.7365,-2.0,17.09,11111222 
TABS,ioos:station:TABS:P:1,2000-01-10T13:00:00Z,29.1662,-92.7365,-2.0,17.1,11111222 
TABS,ioos:station:TABS:P:1,2000-01-10T13:30:00Z,29.1662,-92.7365,-2.0,17.09,11111222 
TABS,ioos:station:TABS:P:1,2000-01-10T14:00:00Z,29.1662,-92.7365,-2.0,17.08,11111222 
TABS,ioos:station:TABS:P:1,2000-01-10T14:30:00Z,29.1662,-92.7365,-2.0,17.08,11111222 
TABS,ioos:station:TABS:P:1,2000-01-10T15:00:00Z,29.1662,-92.7365,-2.0,17.07,11111222 
TABS,ioos:station:TABS:P:1,2000-01-10T15:30:00Z,29.1662,-92.7365,-2.0,17.07,11111222 
TABS,ioos:station:TABS:P:1,2000-01-10T16:00:00Z,29.1662,-92.7365,-2.0,17.09,11111222 
TABS,ioos:station:TABS:P:1,2000-01-10T16:30:00Z,29.1662,-92.7365,-2.0,17.1,11111222 
TABS,ioos:station:TABS:P:1,2000-01-10T17:00:00Z,29.1662,-92.7365,-2.0,17.12,11111222 
TABS,ioos:station:TABS:P:1,2000-01-10T17:30:00Z,29.1662,-92.7365,-2.0,17.15,11111222 
TABS,ioos:station:TABS:P:1,2000-01-10T18:00:00Z,29.1662,-92.7365,-2.0,17.19,11111222 
TABS,ioos:station:TABS:P:1,2000-01-10T18:30:00Z,29.1662,-92.7365,-2.0,17.21,11111222 
TABS,ioos:station:TABS:P:1,2000-01-10T19:00:00Z,29.1662,-92.7365,-2.0,17.24,11111222 
TABS,ioos:station:TABS:P:1,2000-01-10T19:30:00Z,29.1662,-92.7365,-2.0,17.27,11111222 
TABS,ioos:station:TABS:P:1,2000-01-10T20:00:00Z,29.1662,-92.7365,-2.0,17.27,11111222 
TABS,ioos:station:TABS:P:1,2000-01-10T20:30:00Z,29.1662,-92.7365,-2.0,17.29,11111222 
TABS,ioos:station:TABS:P:1,2000-01-10T21:00:00Z,29.1662,-92.7365,-2.0,17.3,11111222 
TABS,ioos:station:TABS:P:1,2000-01-10T21:30:00Z,29.1662,-92.7365,-2.0,17.3,11111222 
TABS,ioos:station:TABS:P:1,2000-01-10T22:00:00Z,29.1662,-92.7365,-2.0,17.32,11111222 
TABS,ioos:station:TABS:P:1,2000-01-11T00:30:00Z,29.1662,-92.7365,-2.0,17.21,11111222 
TABS,ioos:station:TABS:P:1,2000-01-11T01:00:00Z,29.1662,-92.7365,-2.0,17.26,11111222 
TABS,ioos:station:TABS:P:1,2000-01-11T01:30:00Z,29.1662,-92.7365,-2.0,17.27,11111222 
TABS,ioos:station:TABS:P:1,2000-01-11T02:00:00Z,29.1662,-92.7365,-2.0,17.25,11111222 
TABS,ioos:station:TABS:P:1,2000-01-11T02:30:00Z,29.1662,-92.7365,-2.0,17.23,11111222 
TABS,ioos:station:TABS:P:1,2000-01-11T03:00:00Z,29.1662,-92.7365,-2.0,17.23,11111222 
TABS,ioos:station:TABS:P:1,2000-01-11T03:30:00Z,29.1662,-92.7365,-2.0,17.22,11111222 
TABS,ioos:station:TABS:P:1,2000-01-11T04:00:00Z,29.1662,-92.7365,-2.0,17.21,11111222 
TABS,ioos:station:TABS:P:1,2000-01-11T04:30:00Z,29.1662,-92.7365,-2.0,17.21,11111222 
TABS,ioos:station:TABS:P:1,2000-01-11T05:00:00Z,29.1662,-92.7365,-2.0,17.2,11111222 
TABS,ioos:station:TABS:P:1,2000-01-11T05:30:00Z,29.1662,-92.7365,-2.0,17.2,11111222 
TABS,ioos:station:TABS:P:1,2000-01-11T06:00:00Z,29.1662,-92.7365,-2.0,17.2,11111222 
TABS,ioos:station:TABS:P:1,2000-01-11T06:30:00Z,29.1662,-92.7365,-2.0,17.21,11111222 
TABS,ioos:station:TABS:P:1,2000-01-11T07:00:00Z,29.1662,-92.7365,-2.0,17.25,11111222 
TABS,ioos:station:TABS:P:1,2000-01-11T07:30:00Z,29.1662,-92.7365,-2.0,17.27,11111222 
TABS,ioos:station:TABS:P:1,2000-01-11T08:00:00Z,29.1662,-92.7365,-2.0,17.29,11111222 
TABS,ioos:station:TABS:P:1,2000-01-11T08:30:00Z,29.1662,-92.7365,-2.0,17.29,11111222 
TABS,ioos:station:TABS:P:1,2000-01-11T09:00:00Z,29.1662,-92.7365,-2.0,17.29,11111222 
TABS,ioos:station:TABS:P:1,2000-01-11T09:30:00Z,29.1662,-92.7365,-2.0,17.29,11111222 
TABS,ioos:station:TABS:P:1,2000-01-11T10:00:00Z,29.1662,-92.7365,-2.0,17.28,11111222 
TABS,ioos:station:TABS:P:1,2000-01-11T10:30:00Z,29.1662,-92.7365,-2.0,17.28,11111222 
TABS,ioos:station:TABS:P:1,2000-01-11T11:00:00Z,29.1662,-92.7365,-2.0,17.27,11111222 
TABS,ioos:station:TABS:P:1,2000-01-11T11:30:00Z,29.1662,-92.7365,-2.0,17.27,11111222 
TABS,ioos:station:TABS:P:1,2000-01-11T12:00:00Z,29.1662,-92.7365,-2.0,17.26,11111222 
TABS,ioos:station:TABS:P:1,2000-01-11T12:30:00Z,29.1662,-92.7365,-2.0,17.21,11111222 
TABS,ioos:station:TABS:P:1,2000-01-11T13:00:00Z,29.1662,-92.7365,-2.0,17.2,11111222 
TABS,ioos:station:TABS:P:1,2000-01-11T13:30:00Z,29.1662,-92.7365,-2.0,17.04,11111222 
TABS,ioos:station:TABS:P:1,2000-01-11T14:00:00Z,29.1662,-92.7365,-2.0,17.03,11111222 
TABS,ioos:station:TABS:P:1,2000-01-11T14:30:00Z,29.1662,-92.7365,-2.0,16.99,11111222 
TABS,ioos:station:TABS:P:1,2000-01-11T15:00:00Z,29.1662,-92.7365,-2.0,16.93,11111222 
TABS,ioos:station:TABS:P:1,2000-01-11T15:30:00Z,29.1662,-92.7365,-2.0,16.93,11111222 
TABS,ioos:station:TABS:P:1,2000-01-11T16:00:00Z,29.1662,-92.7365,-2.0,16.97,11111222 
TABS,ioos:station:TABS:P:1,2000-01-11T16:30:00Z,29.1662,-92.7365,-2.0,17.02,11111222 
TABS,ioos:station:TABS:P:1,2000-01-11T17:00:00Z,29.1662,-92.7365,-2.0,17.04,11111222 
TABS,ioos:station:TABS:P:1,2000-01-11T17:30:00Z,29.1662,-92.7365,-2.0,17.04,11111222 